STARLINK-32175 (60339 NORAD) Tracking and Keplerian Element Data

This shows tracking and keplerian element data for the satellite.

Feedback or suggestion? Click here.




ElementValue
Catalog60339
NameSTARLINK-32175
Epoch Orbit1106
Epoch Day286.31240421
Epoch Year2024
RAAN300.2928
Inclination53.1612
Eccentricity0.0001938
Argument of Perigee54.6054
Mean Anonmoly305.5128
Mean Motion15.30180989
Decay Rate-2.096E-05
L11 60339U 24136L 24286.31240421 -.00002096 00000+0 -58667-4 0 9990
L22 60339 53.1612 300.2928 0001938 54.6054 305.5128 15.30180989 11066



Live tracking and technical data element details for STARLINK-32175 (NORAD 60339). STARLINK-32175 can be tracked NOW for your location showing map with azimuth and elevation plus other details from your city location.







IsCatalogInMostPopularTable: catalog: 60339, numindb: 6
Update: records affected: 1



GetName: 60339 STARLINK-32175

Hit Count: updated at: Tue, 03 Dec 2024 03:40:23 GMT